Location: Crescent
(42.8242°N, 73.7329°W)
Time: 06:08:45
(UTC+00:00)

Explorer 7 - Pass Details

Date: 16 February 2026
Orbit: 430 x 542 km, 50.2° (Epoch: 5 March)

Event Time Altitude Azimuth Distance (km) Brightness Sun altitude
Rises 20:22:15 0° 231° (SW) 2,418 11.8 19.5°
Reaches altitude 10° 20:24:20 10° 229° (SW) 1,565 11.6 19.2°
Maximum altitude 20:27:50 68° 146° (SE) 494 6.9 18.7°
Drops below altitude 10° 20:31:29 10° 63° (ENE) 1,632 8.7 18.2°
Sets 20:33:42 0° 61° (ENE) 2,534 9.6 17.9°
